SWA1162 KMCI-KDAL

Flight info

Callsign SWA1162
Flight time 1h 30m
Altitude 34000
Route RACER8 DOSOA HITUG HIBIL3
Aircraft B38M/M-SDE1FGHILORVWXY/HB1

Departure

Time 2026-05-05 23:09
Airport Kansas City International Airport (KMCI)

Arrival

Time 2026-05-06 00:39
Airport Dallas Love Field (KDAL)
Time Latitude Longitude Altitude Speed Heading
2026-05-05 22:44 39.29325 -94.72185 1021 ft 0 kts 282°
2026-05-05 22:50 39.29325 -94.72190 1025 ft 1 kts 281°
2026-05-05 22:50 39.29327 -94.72206 1025 ft 3 kts 277°
2026-05-05 22:51 39.29326 -94.72237 1025 ft 5 kts 265°
2026-05-05 22:51 39.29309 -94.72278 1023 ft 6 kts 230°
2026-05-05 22:51 39.29282 -94.72331 1026 ft 8 kts 245°
2026-05-05 22:51 39.29277 -94.72352 1024 ft 0 kts 256°
2026-05-05 22:52 39.29277 -94.72353 1024 ft 0 kts 256°
2026-05-05 22:54 39.29277 -94.72354 1025 ft 1 kts 256°
2026-05-05 22:55 39.29276 -94.72369 1025 ft 4 kts 269°
2026-05-05 22:55 39.29281 -94.72440 1027 ft 11 kts 278°
2026-05-05 22:55 39.29289 -94.72568 1027 ft 18 kts 275°
2026-05-05 22:55 39.29334 -94.72657 1025 ft 10 kts
2026-05-05 22:56 39.29429 -94.72628 1026 ft 18 kts 14°
2026-05-05 22:56 39.29579 -94.72584 1025 ft 26 kts 12°
2026-05-05 22:56 39.29782 -94.72524 1023 ft 31 kts 12°
2026-05-05 22:56 39.29951 -94.72474 1020 ft 23 kts 13°
2026-05-05 22:57 39.30119 -94.72424 1018 ft 26 kts 13°
2026-05-05 22:57 39.30308 -94.72369 1016 ft 29 kts 12°
2026-05-05 22:57 39.30516 -94.72309 1013 ft 32 kts 11°
2026-05-05 22:57 39.30741 -94.72241 1011 ft 34 kts 14°
2026-05-05 22:58 39.30983 -94.72169 1008 ft 36 kts 12°
2026-05-05 22:58 39.31233 -94.72095 1005 ft 37 kts 13°
2026-05-05 22:58 39.31416 -94.72041 1003 ft 25 kts 13°
2026-05-05 22:58 39.31423 -94.72039 1002 ft 25 kts 13°
2026-05-05 22:59 39.31430 -94.72037 1002 ft 25 kts 13°
2026-05-05 23:00 39.31662 -94.71968 1002 ft 24 kts 13°
2026-05-05 23:00 39.31820 -94.71922 998 ft 23 kts 12°
2026-05-05 23:01 39.31977 -94.71875 1000 ft 23 kts 13°
2026-05-05 23:01 39.32129 -94.71830 997 ft 21 kts 11°
2026-05-05 23:01 39.32179 -94.71873 995 ft 6 kts 282°
2026-05-05 23:01 39.32187 -94.71926 997 ft 6 kts 282°
2026-05-05 23:02 39.32194 -94.71967 1000 ft 0 kts 282°
2026-05-05 23:07 39.32198 -94.71992 998 ft 7 kts 282°
2026-05-05 23:07 39.32196 -94.72070 997 ft 6 kts 252°
2026-05-05 23:08 39.32158 -94.72096 996 ft 18 kts 197°
2026-05-05 23:08 39.31780 -94.72212 1000 ft 91 kts 193°
2026-05-05 23:08 39.30998 -94.72468 1108 ft 136 kts 198°
2026-05-05 23:08 39.30014 -94.72803 1567 ft 150 kts 196°
2026-05-05 23:09 39.28968 -94.73090 2100 ft 155 kts 195°
2026-05-05 23:09 39.28142 -94.73766 2693 ft 140 kts 225°
2026-05-05 23:09 39.27294 -94.74386 2981 ft 144 kts 201°
2026-05-05 23:09 39.26277 -94.74678 3181 ft 156 kts 194°
2026-05-05 23:10 39.25172 -94.74952 3352 ft 168 kts 195°
2026-05-05 23:10 39.23994 -94.75318 3517 ft 180 kts 198°
2026-05-05 23:10 39.22745 -94.75756 3615 ft 193 kts 197°
2026-05-05 23:10 39.21404 -94.76234 3701 ft 206 kts 198°
2026-05-05 23:11 39.19983 -94.76741 3748 ft 218 kts 198°
2026-05-05 23:11 39.18456 -94.77284 3744 ft 241 kts 197°
2026-05-05 23:11 39.16764 -94.77884 4113 ft 259 kts 197°
2026-05-05 23:11 39.15007 -94.78502 4752 ft 264 kts 198°
2026-05-05 23:12 39.13220 -94.79134 5435 ft 268 kts 198°
2026-05-05 23:12 39.11420 -94.79771 6132 ft 271 kts 198°
2026-05-05 23:12 39.09587 -94.80419 6785 ft 275 kts 198°
2026-05-05 23:12 39.07726 -94.81077 7449 ft 278 kts 198°
2026-05-05 23:13 39.05843 -94.81741 8092 ft 282 kts 198°
2026-05-05 23:13 39.03945 -94.82410 8762 ft 285 kts 198°
2026-05-05 23:13 39.02009 -94.83095 9397 ft 289 kts 198°
2026-05-05 23:13 39.00069 -94.83779 10016 ft 292 kts 199°
2026-05-05 23:14 38.98080 -94.84481 10406 ft 303 kts 199°
2026-05-05 23:14 38.96018 -94.85209 10682 ft 318 kts 199°
2026-05-05 23:14 38.93812 -94.85986 10965 ft 332 kts 199°
2026-05-05 23:14 38.91555 -94.86777 11402 ft 340 kts 199°
2026-05-05 23:15 38.89274 -94.87577 11914 ft 346 kts 199°
2026-05-05 23:15 38.86913 -94.88407 12459 ft 350 kts 199°
2026-05-05 23:15 38.84552 -94.89236 13023 ft 354 kts 199°
2026-05-05 23:15 38.82871 -94.89825 13424 ft 356 kts 200°
2026-05-05 23:16 38.82627 -94.89911 13474 ft 357 kts 200°
2026-05-05 23:16 38.80216 -94.90756 13992 ft 360 kts 200°
2026-05-05 23:16 38.77784 -94.91607 14491 ft 363 kts 200°
2026-05-05 23:17 38.75348 -94.92460 14988 ft 367 kts 200°
2026-05-05 23:17 38.72864 -94.93329 15492 ft 370 kts 200°
2026-05-05 23:17 38.70366 -94.94202 16044 ft 372 kts 200°
2026-05-05 23:17 38.67873 -94.95073 16554 ft 375 kts 200°
2026-05-05 23:18 38.65344 -94.95955 17043 ft 377 kts 200°
2026-05-05 23:18 38.62813 -94.96838 17565 ft 379 kts 200°
2026-05-05 23:18 38.60252 -94.97731 18061 ft 381 kts 200°
2026-05-05 23:18 38.57687 -94.98624 18500 ft 384 kts 200°
2026-05-05 23:19 38.55103 -94.99523 18935 ft 386 kts 200°
2026-05-05 23:19 38.52507 -95.00426 19390 ft 387 kts 200°
2026-05-05 23:19 38.49931 -95.01321 19838 ft 388 kts 200°
2026-05-05 23:19 38.47324 -95.02226 20282 ft 390 kts 201°
2026-05-05 23:20 38.44660 -95.03151 20736 ft 392 kts 201°
2026-05-05 23:20 38.42061 -95.04052 21156 ft 393 kts 201°
2026-05-05 23:20 38.39381 -95.04981 21582 ft 395 kts 201°
2026-05-05 23:20 38.36746 -95.05892 22000 ft 397 kts 201°
2026-05-05 23:21 38.34088 -95.06812 22414 ft 399 kts 201°
2026-05-05 23:21 38.31402 -95.07741 22821 ft 401 kts 201°
2026-05-05 23:21 38.28692 -95.08677 23229 ft 402 kts 201°
2026-05-05 23:21 38.25957 -95.09621 23570 ft 404 kts 201°
2026-05-05 23:22 38.23270 -95.10547 23884 ft 407 kts 201°
2026-05-05 23:22 38.20535 -95.11490 24204 ft 409 kts 202°
2026-05-05 23:22 38.17774 -95.12441 24506 ft 411 kts 202°
2026-05-05 23:22 38.14961 -95.13298 24820 ft 415 kts 200°
2026-05-05 23:23 38.12160 -95.14123 25110 ft 417 kts 200°
2026-05-05 23:23 38.09324 -95.14976 25401 ft 419 kts 200°
2026-05-05 23:23 38.06478 -95.15820 25652 ft 422 kts 200°
2026-05-05 23:23 38.03595 -95.16663 25916 ft 425 kts 200°
2026-05-05 23:24 38.00696 -95.17514 26185 ft 428 kts 201°
2026-05-05 23:24 37.97782 -95.18375 26452 ft 431 kts 201°
2026-05-05 23:24 37.94860 -95.19237 26711 ft 433 kts 200°
2026-05-05 23:24 37.91900 -95.20105 26989 ft 436 kts 201°
2026-05-05 23:25 37.88941 -95.20973 27263 ft 438 kts 201°
2026-05-05 23:25 37.85966 -95.21848 27540 ft 441 kts 201°
2026-05-05 23:25 37.83010 -95.22715 27781 ft 443 kts 201°
2026-05-05 23:25 37.79964 -95.23607 28060 ft 446 kts 201°
2026-05-05 23:26 37.76966 -95.24484 28331 ft 448 kts 201°
2026-05-05 23:26 37.73892 -95.25383 28606 ft 450 kts 202°
2026-05-05 23:26 37.70872 -95.26266 28876 ft 452 kts 202°
2026-05-05 23:26 37.67792 -95.27166 29152 ft 454 kts 202°
2026-05-05 23:27 37.64714 -95.28063 29419 ft 457 kts 202°
2026-05-05 23:27 37.61594 -95.28973 29690 ft 459 kts 202°
2026-05-05 23:27 37.58482 -95.29879 29893 ft 461 kts 202°
2026-05-05 23:27 37.55351 -95.30791 30112 ft 463 kts 202°
2026-05-05 23:28 37.52202 -95.31706 30328 ft 465 kts 203°
2026-05-05 23:28 37.49042 -95.32624 30549 ft 467 kts 203°
2026-05-05 23:28 37.46941 -95.33234 30679 ft 468 kts 204°
2026-05-05 23:28 37.42706 -95.34463 30990 ft 471 kts 204°
2026-05-05 23:29 37.39509 -95.35387 31325 ft 470 kts 205°
2026-05-05 23:29 37.37362 -95.36006 31558 ft 470 kts 205°
2026-05-05 23:29 37.34175 -95.36928 31865 ft 469 kts 206°
2026-05-05 23:29 37.31007 -95.37846 32200 ft 468 kts 206°
2026-05-05 23:30 37.27870 -95.38753 32537 ft 467 kts 207°
2026-05-05 23:30 37.24707 -95.39664 32888 ft 466 kts 207°
2026-05-05 23:30 37.21504 -95.40587 33221 ft 466 kts 208°
2026-05-05 23:30 37.18396 -95.41482 33559 ft 465 kts 208°
2026-05-05 23:31 37.15215 -95.42402 33713 ft 468 kts 208°
2026-05-05 23:31 37.12052 -95.43313 33709 ft 466 kts 208°
2026-05-05 23:31 37.05788 -95.45101 33720 ft 464 kts 208°
2026-05-05 23:32 36.99486 -95.46917 33710 ft 462 kts 208°
2026-05-05 23:32 36.93186 -95.48717 33713 ft 464 kts 208°
2026-05-05 23:33 36.86877 -95.50521 33712 ft 464 kts 208°
2026-05-05 23:33 36.80581 -95.52319 33729 ft 467 kts 208°
2026-05-05 23:34 36.74274 -95.54108 33718 ft 463 kts 208°
2026-05-05 23:34 36.68007 -95.55898 33727 ft 465 kts 208°
2026-05-05 23:35 36.61655 -95.57695 33703 ft 465 kts 208°
2026-05-05 23:35 36.55344 -95.59491 33737 ft 469 kts 207°
2026-05-05 23:36 36.49024 -95.61266 33735 ft 465 kts 208°
2026-05-05 23:36 36.42678 -95.63071 33724 ft 468 kts 207°
2026-05-05 23:37 36.36367 -95.64840 33675 ft 467 kts 208°
2026-05-05 23:37 36.29970 -95.66654 33731 ft 473 kts 207°
2026-05-05 23:38 36.23604 -95.68424 33723 ft 469 kts 208°
2026-05-05 23:38 36.17205 -95.70236 33729 ft 472 kts 207°
2026-05-05 23:39 36.10828 -95.72008 33731 ft 471 kts 207°
2026-05-05 23:39 36.04377 -95.73827 33803 ft 475 kts 207°
2026-05-05 23:40 35.97959 -95.75602 33791 ft 473 kts 207°
2026-05-05 23:40 35.91509 -95.77412 33807 ft 475 kts 207°
2026-05-05 23:41 35.85087 -95.79187 33824 ft 473 kts 207°
2026-05-05 23:41 35.78694 -95.80971 33782 ft 473 kts 207°
2026-05-05 23:42 35.72220 -95.82762 33748 ft 474 kts 207°
2026-05-05 23:42 35.65809 -95.84538 33735 ft 474 kts 207°
2026-05-05 23:43 35.59390 -95.86311 33751 ft 474 kts 207°
2026-05-05 23:43 35.52910 -95.88100 33782 ft 476 kts 207°
2026-05-05 23:44 35.46486 -95.89866 33813 ft 474 kts 207°
2026-05-05 23:44 35.43254 -95.90762 33623 ft 479 kts 207°
2026-05-05 23:44 35.39974 -95.91669 33091 ft 481 kts 206°
2026-05-05 23:45 35.36725 -95.92549 32571 ft 478 kts 206°
2026-05-05 23:45 35.33494 -95.93427 32025 ft 474 kts 206°
2026-05-05 23:45 35.30307 -95.94306 31518 ft 470 kts 205°
2026-05-05 23:45 35.27093 -95.95194 31017 ft 467 kts 205°
2026-05-05 23:46 35.23937 -95.96055 30525 ft 463 kts 205°
2026-05-05 23:46 35.20817 -95.96904 30043 ft 459 kts 204°
2026-05-05 23:46 35.17750 -95.97743 29482 ft 455 kts 204°
2026-05-05 23:46 35.14664 -95.98589 28895 ft 451 kts 204°
2026-05-05 23:47 35.11626 -95.99418 28330 ft 447 kts 204°
2026-05-05 23:47 35.08588 -96.00245 27753 ft 443 kts 203°
2026-05-05 23:47 35.05593 -96.01061 27205 ft 440 kts 203°
2026-05-05 23:47 35.02628 -96.01869 26678 ft 436 kts 202°
2026-05-05 23:48 34.99660 -96.02677 26152 ft 433 kts 202°
2026-05-05 23:48 34.96744 -96.03471 25654 ft 430 kts 201°
2026-05-05 23:48 34.93825 -96.04264 25091 ft 426 kts 202°
2026-05-05 23:48 34.90959 -96.05037 24635 ft 420 kts 203°
2026-05-05 23:49 34.88124 -96.05804 24164 ft 413 kts 203°
2026-05-05 23:49 34.85331 -96.06564 23698 ft 408 kts 203°
2026-05-05 23:49 34.82576 -96.07313 23178 ft 403 kts 202°
2026-05-05 23:49 34.79882 -96.08041 22632 ft 398 kts 202°
2026-05-05 23:50 34.77173 -96.08773 22081 ft 393 kts 202°
2026-05-05 23:50 34.74544 -96.09488 21554 ft 388 kts 202°
2026-05-05 23:50 34.71927 -96.10194 21027 ft 384 kts 202°
2026-05-05 23:50 34.69320 -96.10895 20510 ft 380 kts 201°
2026-05-05 23:51 34.66762 -96.11586 20001 ft 376 kts 201°
2026-05-05 23:51 34.64214 -96.12274 19496 ft 372 kts 201°
2026-05-05 23:51 34.61696 -96.12954 19011 ft 369 kts 201°
2026-05-05 23:51 34.59207 -96.13623 18527 ft 366 kts 201°
2026-05-05 23:52 34.56734 -96.14289 18027 ft 362 kts 200°
2026-05-05 23:52 34.54304 -96.14942 17481 ft 359 kts 200°
2026-05-05 23:52 34.51869 -96.15597 16943 ft 356 kts 200°
2026-05-05 23:52 34.49438 -96.16250 16405 ft 353 kts 200°
2026-05-05 23:53 34.47045 -96.16893 15876 ft 350 kts 200°
2026-05-05 23:53 34.44705 -96.17521 15371 ft 348 kts 200°
2026-05-05 23:53 34.42353 -96.18152 14868 ft 345 kts 200°
2026-05-05 23:53 34.40019 -96.18778 14371 ft 343 kts 200°
2026-05-05 23:54 34.37687 -96.19402 13883 ft 341 kts 200°
2026-05-05 23:54 34.35383 -96.20020 13366 ft 339 kts 200°
2026-05-05 23:54 34.33091 -96.20634 12830 ft 337 kts 200°
2026-05-05 23:54 34.30806 -96.21246 12277 ft 335 kts 199°
2026-05-05 23:55 34.28539 -96.21852 11767 ft 333 kts 198°
2026-05-05 23:55 34.26280 -96.22455 11246 ft 332 kts 198°
2026-05-05 23:55 34.24024 -96.23057 10743 ft 331 kts 197°
2026-05-05 23:55 34.21774 -96.23658 10250 ft 330 kts 197°
2026-05-05 23:56 34.19532 -96.24256 9767 ft 329 kts 197°
2026-05-05 23:56 34.17295 -96.24852 9242 ft 329 kts 196°
2026-05-05 23:56 34.15069 -96.25444 8835 ft 325 kts 197°
2026-05-05 23:56 34.12917 -96.26013 8797 ft 310 kts 197°
2026-05-05 23:57 34.10839 -96.26565 8801 ft 301 kts 197°
2026-05-05 23:57 34.08769 -96.27124 8812 ft 313 kts 197°
2026-05-05 23:57 34.06653 -96.27688 8806 ft 309 kts 197°
2026-05-05 23:57 34.04571 -96.28237 8801 ft 310 kts 197°
2026-05-05 23:58 34.02436 -96.28804 8814 ft 311 kts 197°
2026-05-05 23:58 34.00321 -96.29365 8806 ft 309 kts 197°
2026-05-05 23:58 33.98224 -96.29922 8818 ft 309 kts 197°
2026-05-05 23:58 33.96146 -96.30474 8810 ft 310 kts 197°
2026-05-05 23:59 33.94040 -96.31032 8818 ft 309 kts 197°
2026-05-05 23:59 33.91913 -96.31595 8721 ft 312 kts 197°
2026-05-05 23:59 33.89792 -96.32159 8232 ft 318 kts 197°
2026-05-05 23:59 33.87631 -96.32730 7729 ft 319 kts 197°
2026-05-06 00:00 33.85463 -96.33302 7217 ft 319 kts 197°
2026-05-06 00:00 33.83286 -96.33878 6722 ft 320 kts 196°
2026-05-06 00:00 33.81123 -96.34450 6232 ft 320 kts 196°
2026-05-06 00:00 33.78933 -96.35029 5706 ft 321 kts 196°
2026-05-06 00:01 33.76754 -96.35604 5212 ft 321 kts 195°
2026-05-06 00:01 33.74576 -96.36178 4662 ft 320 kts 195°
2026-05-06 00:01 33.72411 -96.36749 4144 ft 319 kts 194°
2026-05-06 00:01 33.70227 -96.37324 3656 ft 318 kts 194°
2026-05-06 00:02 33.68072 -96.37891 3151 ft 317 kts 194°
2026-05-06 00:02 33.65941 -96.38494 2786 ft 311 kts 200°
2026-05-06 00:02 33.64085 -96.39644 2755 ft 292 kts 218°
2026-05-06 00:02 33.62561 -96.41198 2747 ft 288 kts 223°
2026-05-06 00:03 33.61044 -96.42802 2742 ft 289 kts 223°
2026-05-06 00:03 33.59556 -96.44376 2750 ft 283 kts 223°
2026-05-06 00:03 33.58071 -96.45941 2752 ft 288 kts 223°
2026-05-06 00:03 33.56544 -96.47547 2747 ft 290 kts 225°
2026-05-06 00:04 33.55036 -96.49135 2754 ft 289 kts 223°
2026-05-06 00:04 33.53531 -96.50716 2754 ft 290 kts 224°
2026-05-06 00:04 33.52004 -96.52320 2748 ft 288 kts 224°
2026-05-06 00:04 33.50503 -96.53900 2744 ft 295 kts 223°
2026-05-06 00:05 33.47392 -96.57162 2762 ft 293 kts 223°
2026-05-06 00:05 33.45855 -96.58775 2768 ft 296 kts 223°
2026-05-06 00:05 33.44313 -96.60395 2760 ft 295 kts 222°
2026-05-06 00:06 33.42758 -96.62024 2760 ft 298 kts 223°
2026-05-06 00:06 33.41214 -96.63640 2747 ft 288 kts 223°
2026-05-06 00:06 33.39803 -96.65253 2729 ft 272 kts 236°
2026-05-06 00:06 33.38981 -96.67199 2753 ft 256 kts 255°
2026-05-06 00:07 33.38584 -96.69222 2764 ft 242 kts 258°
2026-05-06 00:07 33.38237 -96.71135 2746 ft 237 kts 259°
2026-05-06 00:07 33.37882 -96.73074 2756 ft 238 kts 258°
2026-05-06 00:07 33.37515 -96.75051 2762 ft 242 kts 258°
2026-05-06 00:08 33.37152 -96.76988 2747 ft 236 kts 258°
2026-05-06 00:08 33.36799 -96.78887 2755 ft 239 kts 258°
2026-05-06 00:08 33.36440 -96.80819 2745 ft 235 kts 259°
2026-05-06 00:08 33.36085 -96.82724 2760 ft 235 kts 258°
2026-05-06 00:09 33.35579 -96.84617 2769 ft 241 kts 237°
2026-05-06 00:09 33.34285 -96.85862 2766 ft 247 kts 197°
2026-05-06 00:09 33.32596 -96.85855 2792 ft 246 kts 159°
2026-05-06 00:09 33.31025 -96.85127 2768 ft 239 kts 170°
2026-05-06 00:10 33.29423 -96.84925 2771 ft 224 kts 187°
2026-05-06 00:10 33.28009 -96.85170 2762 ft 206 kts 193°
2026-05-06 00:10 33.26569 -96.85506 2769 ft 217 kts 193°
2026-05-06 00:10 33.25095 -96.85778 2759 ft 213 kts 191°
2026-05-06 00:11 33.23617 -96.86024 2849 ft 214 kts 189°
2026-05-06 00:11 33.22159 -96.86272 2979 ft 213 kts 191°
2026-05-06 00:11 33.20711 -96.86525 3003 ft 203 kts 189°
2026-05-06 00:11 33.19389 -96.86753 2965 ft 180 kts 190°
2026-05-06 00:12 33.18215 -96.86954 2960 ft 162 kts 193°
2026-05-06 00:12 33.17115 -96.87148 2986 ft 164 kts 191°
2026-05-06 00:12 33.15950 -96.87352 2975 ft 166 kts 192°
2026-05-06 00:12 33.14842 -96.87543 2984 ft 161 kts 191°
2026-05-06 00:13 33.13723 -96.87738 3003 ft 162 kts 191°
2026-05-06 00:13 33.13417 -96.87791 3003 ft 164 kts 190°
2026-05-06 00:19 33.12783 -96.87899 2988 ft 163 kts 192°
2026-05-06 00:20 33.11662 -96.88094 2999 ft 163 kts 192°
2026-05-06 00:20 33.10537 -96.88290 2975 ft 163 kts 192°
2026-05-06 00:20 33.09410 -96.88486 2978 ft 167 kts 191°
2026-05-06 00:20 33.08283 -96.88679 2979 ft 159 kts 192°
2026-05-06 00:21 33.07170 -96.88873 2992 ft 168 kts 191°
2026-05-06 00:21 33.06039 -96.89067 2978 ft 161 kts 192°
2026-05-06 00:21 33.04937 -96.89258 2992 ft 165 kts 192°
2026-05-06 00:21 33.03799 -96.89455 3016 ft 164 kts 192°
2026-05-06 00:22 33.02661 -96.89652 3021 ft 166 kts 192°
2026-05-06 00:22 33.01555 -96.89843 3021 ft 162 kts 190°
2026-05-06 00:22 33.00410 -96.90042 2987 ft 161 kts 190°
2026-05-06 00:22 32.99296 -96.90234 3002 ft 167 kts 191°
2026-05-06 00:23 32.98180 -96.90426 2999 ft 159 kts 191°
2026-05-06 00:23 32.97063 -96.90620 3019 ft 164 kts 191°
2026-05-06 00:23 32.95926 -96.90814 3026 ft 168 kts 188°
2026-05-06 00:23 32.94744 -96.91019 2997 ft 168 kts 188°
2026-05-06 00:24 32.93611 -96.91215 3019 ft 171 kts 188°
2026-05-06 00:24 32.92446 -96.91416 3000 ft 165 kts 188°
2026-05-06 00:24 32.91269 -96.91619 2999 ft 170 kts 188°
2026-05-06 00:24 32.90129 -96.91815 3022 ft 168 kts 188°
2026-05-06 00:25 32.88984 -96.92012 2999 ft 161 kts 188°
2026-05-06 00:25 32.87842 -96.92209 3009 ft 166 kts 188°
2026-05-06 00:25 32.86722 -96.92397 2849 ft 167 kts 188°
2026-05-06 00:25 32.85523 -96.92582 2120 ft 191 kts 187°
2026-05-06 00:26 32.84309 -96.92879 1841 ft 167 kts 190°
2026-05-06 00:26 32.83160 -96.93042 1804 ft 169 kts 189°
2026-05-06 00:26 32.82000 -96.93217 1871 ft 167 kts 191°
2026-05-06 00:26 32.80835 -96.93465 2026 ft 175 kts 204°
2026-05-06 00:27 32.79976 -96.94360 1996 ft 151 kts 243°
2026-05-06 00:27 32.79668 -96.95475 2002 ft 141 kts 274°
2026-05-06 00:27 32.79835 -96.96601 2004 ft 138 kts 300°
2026-05-06 00:27 32.80422 -96.97480 1887 ft 137 kts 322°
2026-05-06 00:28 32.80656 -96.97722 1822 ft 134 kts 325°
2026-05-06 00:28 32.80860 -96.97924 1764 ft 130 kts 326°
2026-05-06 00:28 32.81450 -96.98461 1435 ft 125 kts 327°
2026-05-06 00:28 32.82157 -96.99148 1298 ft 137 kts 316°
2026-05-06 00:29 32.82834 -96.99931 1417 ft 130 kts 318°
2026-05-06 00:29 32.83471 -97.00606 1530 ft 122 kts 321°
2026-05-06 00:29 32.84127 -97.01284 1658 ft 130 kts 324°
2026-05-06 00:29 32.84819 -97.01998 1780 ft 132 kts 324°
2026-05-06 00:30 32.85507 -97.02677 1895 ft 128 kts 332°
2026-05-06 00:30 32.86327 -97.02526 1956 ft 135 kts 45°
2026-05-06 00:30 32.86523 -97.01371 1997 ft 165 kts 102°
2026-05-06 00:30 32.86141 -96.99939 2005 ft 197 kts 103°
2026-05-06 00:31 32.85777 -96.98234 2018 ft 231 kts 107°
2026-05-06 00:31 32.84923 -96.96539 2023 ft 249 kts 135°
2026-05-06 00:31 32.83580 -96.95282 2022 ft 243 kts 138°
2026-05-06 00:31 32.82247 -96.93923 2029 ft 255 kts 130°
2026-05-06 00:32 32.81199 -96.92312 2015 ft 244 kts 118°
2026-05-06 00:32 32.80330 -96.90550 2019 ft 247 kts 117°
2026-05-06 00:32 32.79431 -96.88836 2017 ft 247 kts 120°
2026-05-06 00:32 32.78464 -96.87109 2013 ft 248 kts 120°
2026-05-06 00:33 32.77979 -96.86246 2009 ft 244 kts 121°
2026-05-06 00:33 32.77287 -96.85002 2016 ft 244 kts 119°
2026-05-06 00:34 32.76407 -96.83398 1998 ft 216 kts 122°
2026-05-06 00:34 32.75658 -96.82043 1987 ft 176 kts 122°
2026-05-06 00:34 32.75046 -96.80935 1998 ft 158 kts 122°
2026-05-06 00:34 32.74442 -96.79820 1985 ft 155 kts 118°
2026-05-06 00:35 32.74257 -96.78636 2004 ft 147 kts 81°
2026-05-06 00:35 32.74624 -96.77501 1997 ft 147 kts 47°
2026-05-06 00:35 32.75425 -96.76805 2005 ft 145 kts 17°
2026-05-06 00:35 32.76401 -96.76720 2020 ft 137 kts 346°
2026-05-06 00:36 32.77243 -96.77220 2022 ft 132 kts 315°
2026-05-06 00:36 32.77847 -96.78000 2140 ft 139 kts 313°
2026-05-06 00:36 32.78355 -96.78616 1929 ft 147 kts 316°
2026-05-06 00:37 32.79092 -96.79403 1424 ft 136 kts 319°
2026-05-06 00:37 32.79799 -96.80095 1208 ft 140 kts 316°
2026-05-06 00:37 32.80486 -96.80932 1313 ft 146 kts 313°
2026-05-06 00:37 32.81240 -96.81839 1180 ft 155 kts 315°
2026-05-06 00:38 32.82025 -96.82747 969 ft 162 kts 317°
2026-05-06 00:38 32.82823 -96.83674 740 ft 159 kts 315°
2026-05-06 00:38 32.83634 -96.84606 504 ft 157 kts 317°
2026-05-06 00:38 32.84231 -96.85286 480 ft 80 kts 315°
2026-05-06 00:39 32.84456 -96.85544 480 ft 7 kts 314°
2026-05-06 00:39 32.84458 -96.85547 480 ft 0 kts 311°